Погода в Кунтики

Погода в Кунтики : погода сейчас, прогноз погоды и архив. Всё, что Вы хотите узнать о погоде в Кунтики!

Хотите узнать прогноз погоды в Кунтики? Тогда Вам сюда: Погода в Кунтики

Поиск расширенной информации на нашем сайте:

Другие новости

Новости СМИ2

Главная страница сайта

Новости сайта

03.07.2017

Напоминаем, что на нашем специализированном сайте Метеоцентр.Азия вы можете получить высокодетализированные автоматические прогнозы погоды по пунктам России, СНГ и мира в авиационном формате (включающие направление и скорость ветра, видимость, явления погоды, количество и форму облачности, нижнюю и верхнюю границу облачности).


Погода в Кунтики - сегодня

Время (UTC), дата Ветер
(°,м/с) 
Видим.   Явления Облачность Т
(°С)
Тd
(°С)
f(%) Тe
(°С)
Pmin
(гПа)
dP
(гПа)
Po
(мм)
O2
(г/м3)
Тmin Tmax R s Состояние
почвы
12 15.06.18 110 (В) 20000 м    8/4 600 м кучево-дожд., средняя, верхняя 
[Cb calv|Ac cast|Cc]
+22.2 +9.5 44 +23  1002.5  -0.7  745  276    +23.1       
15 15.06.18 110 (В) 20000 м    9/8 360 м кучево-дожд., средняя, верхняя 
[Cb calv|Ac lent|Cc]
+20.4 +9.3 49 +21  1002.5  745  278           
00 16.06.18 250 (З) 20000 м  в посл. час ливневой дождь  10/9 270 м кучево-дожд., средняя 
[Cb cap|Ac und]
+12.9 +11.3 90 +15  1003.9  0.6  746  285  +12.9      влажная 
06 16.06.18 250 (З) 20000 м    8/4 600 м верхняя 
[Cu med, cong|Ci fib]
+16.8 +5.9 49 +17  1005.7  0.5  747  283           
09 16.06.18 280 (З) 20000 м    8/3 600 м средняя, верхняя 
[Cu med, cong|Ac cuf|Ci fib]
+18.5 +2.7 35 +19  1006  0.3  747  282           
12 16.06.18 360 (С) 20000 м    9/3 600 м средняя, верхняя 
[Cu med, cong|Ac cuf|Ci sp]
+19.3 +2.5 33 +20  1006  0.1  747  281    +19.9       
15 16.06.18 120 (ЮВ) 20000 м    8/3 1000 м средняя, верхняя 
[Sc diur, vesp|Ac cuf|Ci fib]
+16.1 +6.1 51 +17  1006.6  0.5  748  284           
18 16.06.18 тихо ()   20000 м    8/3 1000 м средняя, верхняя 
[Sc|Ac trans|Ci fib]
+12.2 +7.5 73 +12  1006.7  -0.1  748  287           
21 16.06.18 180 (Ю) 20000 м    6/3 1000 м средняя, верхняя 
[Sc|Ac trans|Ci fib]
+7.2 +5.7 90 +8  1006.5  -0.3  748  293           
00 17.06.18 170 (Ю) 20000 м    6/3 1000 м средняя, верхняя 
[Sc|Ac lent|Ci fib]
+9 +5.9 81 +10  1006.6  0.1  748  291  +6.4        влажная 
03 17.06.18 160 (Ю) 20000 м    3/1 600 м верхняя 
[Cu med, cong|Ci fib]
+17.5 +5.9 46 +19  1005.7  -0.6  747  282           
06 17.06.18 220 (ЮЗ) 20000 м    4/4 600 м 
[Cu med, cong]
+20.4 +0.7 27 +20  1005.1  -0.5  747  280           
09 17.06.18 130 (ЮВ) 20000 м    8/5 1000 м средняя 
[Cu Sc|Ac cuf]
+20.7 +0.8 27 +21  1004.2  -0.9  746  279           
12 17.06.18 100 (В) 20000 м    8/3 1000 м средняя, верхняя 
[Cu med, cong|Ac lent|Ci fib]
+21.3 +0.6 25 +21  1003.1  -1  745  278    +22.4       
15 17.06.18 030 (СВ) 20000 м    3/1 1000 м средняя, верхняя 
[Sc diur, vesp|Ac lent|Cc]
+15.2 +6.5 56 +17  1002.5  -0.7  745  283           
18 17.06.18 090 (В) 20000 м    3/0 средняя 
[Ac cuf]
+14.5 +6.5 59 +15  1002.2  -0.4  745  284           
21 17.06.18 100 (В) 20000 м    9/0 средняя 
[Ac trans]
+13.7 +9 73 +14  1001.1  -1.1  744  284           
00 18.06.18 160 (Ю) 20000 м    5/0 средняя 
[Ac cast]
+12.5 +8.5 77 +13  1001.3  0.1  744  285  +11.9        сухая 
03 18.06.18 180 (Ю) 20000 м    5/1 600 м средняя, верхняя 
[Cu hum|Ac trans|Cc]
+16.5 +8.6 60 +17  1001.5  0.4  744  281           
06 18.06.18 190 (Ю) 20000 м    6/3 1000 м верхняя 
[Cu hum|Cc]
+19.1 +2.1 32 +20  1002  0.4  744  280           
09 18.06.18 150 (ЮВ) 20000 м    8/3 1000 м средняя, верхняя 
[Sc diur, vesp|Ac trans|Ci]
+19.9 +0.8 28 +21  1001.5  -0.3  744  279           
12 18.06.18 140 (ЮВ) 20000 м    8/4 1000 м средняя, верхняя 
[Sc diur, vesp|Ac lent|Ci sp]
+19.3 +2.1 32 +20  1001.7  0.2  744  280    +21.7       
15 18.06.18 120 (ЮВ) 20000 м    6/0 средняя, верхняя 
[Ac cast|Ci sp]
+19 +2.8 34 +21  1000.6  -1.1  743  280           
18 18.06.18 130 (ЮВ) 20000 м    9/3 1000 м средняя, верхняя 
[Sc|Ac lent|Ci sp]
+15.1 +7.4 60 +16  1000.4  -0.3  743  283           
21 18.06.18 150 (ЮВ) 20000 м    3/0 средняя 
[Ac As]
+11.6 +7.2 74 +12  999.6  -0.9  743  286           
Время (UTC), дата Ветер
(°,м/с) 
Видим.   Явления Облачность Т
(°С)
Тd
(°С)
f(%) Тe
(°С)
Pmin
(гПа)
dP
(гПа)
Po
(мм)
O2
(г/м3)
Тmin Tmax R s Состояние
почвы

Для получения пояснительной информации подведите курсор к названию столбца.

ПОГОДА в Кунтики - архив

Всё, что Вы хотите узнать о погоде в Кунтики - удобно и подробно!

Выберите нужную дату (начиная с 1 января 2015* года) и нажмите кнопку "Найти".
Будут отображены архивные сводки погоды по пункту Кунтики, начиная с указанной даты.


Отображать данные в формате CSV (для использования в таблицах Excel)


Внимание! Наш архив погоды предназначен исключительно для личного некоммерческого использования в познавательных целях. Если Вам необходимы официальные справки о состоянии погоды (для производственных, юридических, коммерческих и т.п. целей), обращайтесь в органы Росгидромета.

*Примечание: данная дата относится к архиву по метеостанциям СССР (Россия, СНГ, Балтия).
Архив по метеостанциям Зарубежной Европы и Азии (кроме Китая) хранится 10 дней, по другим регионам земного шара (Китай, Африка, Америка, Австралия, Океания) - 1 день.

Кунтики - район местоположения метеостанции


Название, широта, долгота, высота метеостанции:
Кунтики 58.4°ш. 76.4°д. 81 м над ур. моря [Российская Федерация]

Дополнительная информация

В oтличие oт бoльшинства пoгoдных сайтoв мы публикуем пoдрoбную метеoинфoрмацию в детальнoм прoфессиoнальнoм фoрмате.

Характеристики температуры и влажнoсти вoздуха измеряются на высoте 2 м в тени вдали oт зданий и деревьев.
Скoрoсть ветра измеряется на высoте 10 м (на урoвне рoста челoвека скoрoсть ветра ниже в 1.5-2 раза). Если метеoстанция нахoдится в гoрoде или в лесу, тo скoрoсть ветра занижена на 2-4 м/с пo сравнению с oткрытым местoм. Скoрoсть ветра над акватoриями крупных рек и oзёр, а также на вершинах хoлмoв на 2-5 м/с выше, чем в oбычных услoвиях.
Атмoсфернoе давление в разных тoчках местнoсти мoжет значительнo oтличаться oт давления на метеoстанции, в зависимoсти oт услoвий рельефа (при пoдъёме на 10 м давление пoнижается примернo на 1 мм рт.ст.).